Chillicothe, MO

6:46 PM CDT on October 14, 2019 (GMT -0500)
Chillicothe

Weather History for KCDJ - August, 2019

Change the Weather History Date:

Thursday, August 8, 2019

  Actual Average (KIRK) Record (KIRK)
Temperature  
Mean Temperature 78 °F -  
Max Temperature 90 °F 85 °F 110 °F (1934)
Min Temperature 66 °F 64 °F 50 °F (1976)
Cooling Degree Days 12    
Growing Degree Days 28 (Base 50)    
Moisture  
Dew Point 70 °F    
Average Humidity 81    
Maximum Humidity 100    
Minimum Humidity 55    
Precipitation  
Precipitation 0.00 in - - ()
Sea Level Pressure  
Sea Level Pressure 29.89 in    
Wind  
Wind Speed 1 mph (WSW)    
Max Wind Speed 6 mph    
Max Gust Speed -    
Averages and records for this station are not official NWS values.
T = Trace of Precipitation, MM = Missing Value Source: NWS Daily Summary

Daily Weather History Graph

Daily Weather History Graph

Search for Another Location

Airport or City:

Astronomy

Aug. 08, 2019 Rise Set
Actual Time 6:19 AM CDT 8:19 PM CDT
Civil Twilight 5:49 AM CDT 8:49 PM CDT
Nautical Twilight 5:13 AM CDT 9:25 PM CDT
Astronomical Twilight 4:34 AM CDT 10:04 PM CDT
Moon 2:56 PM CDT (8/8) 12:41 AM CDT (8/8)
Length of Visible Light 14h 59m
Length of Day
14h 00m
First Quarter, 60% of the Moon is Illuminated
Aug 8
First Quarter
Aug 15
Full
Aug 23
Last Quarter
Aug 30
New
Sep 5
First Quarter

Hourly Weather History & Observations

Time (CDT) Temp. Heat Index Dew Point Humidity Pressure Visibility Wind Dir Wind Speed Gust Speed Precip Events Conditions
12:52 AM 69.1 °F - 68.0 °F 96% 29.86 in - Calm Calm - N/A   Unknown
1:52 AM 68.0 °F - 66.9 °F 96% 29.85 in - Calm Calm - N/A   Unknown
2:52 AM 66.9 °F - 66.0 °F 97% 29.84 in - Calm Calm - N/A   Unknown
3:52 AM 66.9 °F - 66.0 °F 97% 29.87 in - Calm Calm - N/A   Unknown
4:52 AM 66.9 °F - 66.0 °F 97% 29.88 in - Calm Calm - N/A   Unknown
5:52 AM 66.0 °F - 66.0 °F 100% 29.89 in - Calm Calm - N/A   Unknown
6:52 AM 66.9 °F - 66.9 °F 100% 29.90 in - Calm Calm - N/A   Unknown
8:52 AM 73.0 °F - 70.0 °F 90% 29.93 in - Calm Calm - N/A   Unknown
9:52 AM 75.0 °F - 72.0 °F 90% 29.93 in - SSW 3.5 mph - N/A   Unknown
10:52 AM 79.0 °F - 73.0 °F 82% 29.92 in - NW 3.5 mph - N/A   Unknown
11:52 AM 82.0 °F 87.9 °F 73.9 °F 76% 29.92 in - Variable 3.5 mph - N/A   Unknown
12:52 PM 84.0 °F 90.2 °F 73.0 °F 69% 29.92 in - Variable 5.8 mph - N/A   Unknown
1:52 PM 86.0 °F 92.2 °F 72.0 °F 63% 29.91 in - Calm Calm - N/A   Unknown
2:52 PM 87.1 °F 93.6 °F 72.0 °F 61% 29.90 in - Variable 4.6 mph - N/A   Unknown
3:52 PM 88.0 °F 94.7 °F 72.0 °F 59% 29.89 in - SW 3.5 mph - N/A   Unknown
4:52 PM 87.1 °F 92.8 °F 71.1 °F 59% 29.88 in - Calm Calm - N/A   Unknown
5:52 PM 89.1 °F 95.0 °F 71.1 °F 55% 29.87 in - Variable 3.5 mph - N/A   Unknown
6:52 PM 88.0 °F 95.6 °F 73.0 °F 61% 29.87 in - Calm Calm - N/A   Unknown
7:52 PM 82.0 °F 87.4 °F 73.0 °F 74% 29.88 in - Calm Calm - N/A   Unknown
8:52 PM 77.0 °F - 73.9 °F 90% 29.89 in - Calm Calm - N/A   Unknown
11:52 PM 75.0 °F - 73.0 °F 94% 29.92 in - Calm Calm - N/A   Unknown